MDT,Max TemperatureF,Mean TemperatureF,Min TemperatureF,Max Dew PointF,MeanDew PointF,Min DewpointF,Max Humidity, Mean Humidity, Min Humidity, Max Sea Level PressureIn, Mean Sea Level PressureIn, Min Sea Level PressureIn, Max VisibilityMiles, Mean VisibilityMiles, Min VisibilityMiles, Max Wind SpeedMPH, Mean Wind SpeedMPH, Max Gust SpeedMPH,PrecipitationIn, CloudCover, Events, WindDirDegrees
2012-10-1,69,50,32,32,27,25,75,43,18,30.48,30.39,30.30,10,10,10,9,3,20,0.00,1,,278
2012-10-2,71,50,28,30,26,21,80,45,17,30.37,30.28,30.16,10,10,10,17,3,25,0.00,0,,254
2012-10-3,71,50,30,28,22,16,70,39,15,30.27,30.23,30.15,10,10,10,24,4,32,0.00,1,,305
2012-10-4,69,51,33,34,25,19,65,39,18,30.32,30.24,30.17,10,10,5,25,6,48,0.00,3,Thunderstorm,291
2012-10-5,62,50,39,36,23,10,76,38,15,30.21,30.16,30.12,10,10,10,26,12,39,0.00,2,,287
2012-10-6,55,45,35,18,6,-2,45,21,12,30.20,30.15,30.10,10,10,10,20,7,29,0.00,0,,258
2012-10-7,53,36,19,16,6,1,63,29,15,30.25,30.18,30.13,10,10,10,21,5,29,0.00,0,,278
2012-10-8,60,38,15,12,7,0,63,34,11,30.30,30.22,30.12,10,10,10,17,2,25,0.00,0,,325
2012-10-9,64,42,21,21,13,7,63,34,14,30.28,30.20,30.14,10,10,7,22,5,33,0.00,0,,282
2012-10-10,68,46,23,27,20,12,69,42,20,30.37,30.27,30.16,10,10,8,14,2,23,0.00,0,,324
2012-10-11,69,46,24,37,24,18,75,44,18,30.34,30.26,30.17,10,10,5,20,2,25,0.00,1,,162
2012-10-12,51,43,35,43,36,27,76,69,54,30.31,30.20,30.04,10,10,7,22,6,30,0.04,4,Thunderstorm,65
2012-10-13,46,38,30,34,31,25,86,73,62,30.36,30.20,30.13,10,10,10,24,7,31,0.00,5,,248
2012-10-14,59,44,30,36,29,25,93,60,31,30.50,30.42,30.36,10,10,10,14,4,18,0.00,2,,304
2012-10-15,64,44,23,28,23,18,86,50,19,30.44,30.32,30.21,10,10,2,20,3,23,0.00,0,,269
2012-10-16,66,45,24,28,24,18,80,49,21,30.25,30.09,29.90,10,10,10,24,4,34,0.00,1,,264
2012-10-17,55,44,33,36,10,0,62,25,12,30.21,30.07,29.91,10,10,10,26,14,34,0.01,1,,262
2012-10-18,57,39,21,16,12,5,63,34,17,30.33,30.28,30.22,10,10,10,22,6,28,0.00,0,,266
2012-10-19,64,42,19,21,15,10,74,41,13,30.37,30.26,30.14,10,10,10,20,3,26,0.00,0,,297
2012-10-20,69,43,17,21,15,9,74,39,12,30.22,30.10,29.97,10,10,5,20,3,25,0.00,0,,317
2012-10-21,64,42,21,25,17,10,68,40,19,30.14,30.07,29.99,10,10,10,14,2,17,0.00,0,,263
2012-10-22,64,44,23,27,20,12,80,45,17,30.14,30.06,29.96,10,10,10,18,3,25,0.00,0,,260
2012-10-23,62,44,26,27,18,12,69,37,14,30.05,30.00,29.94,10,10,10,28,7,36,0.00,2,,263
2012-10-24,59,44,28,27,20,12,75,46,20,30.05,29.94,29.76,10,10,10,26,8,41,0.00,3,,289
2012-10-25,41,30,19,25,14,7,86,56,26,30.26,30.14,30.06,10,10,2,26,7,33,0.00,3,,301
2012-10-26,39,24,10,18,6,-4,86,49,16,30.45,30.33,30.25,10,10,10,10,3,,0.00,0,,3
2012-10-27,48,32,15,12,6,1,63,39,18,30.30,30.24,30.17,10,10,10,17,3,26,0.00,2,,290
2012-10-28,57,38,19,25,16,7,74,44,26,30.35,30.28,30.20,10,10,10,18,4,31,0.00,1,,259
2012-10-29,60,40,19,27,19,12,80,50,22,30.43,30.36,30.28,10,10,10,17,2,22,0.00,0,,311
2012-10-30,60,40,19,23,18,12,80,47,18,30.44,30.35,30.26,10,10,8,13,2,18,0.00,0,,226
2012-10-31,60,40,19,21,15,10,80,46,15,30.44,30.36,30.26,10,10,10,8,1,,0.00,0,,271